QPF
0.11 0.10 0.09 0.11 0.09 0.07 0.07 0.08 0.09 0.07 0.04 0.03 0.03 0.06 0.11 0.12 0.10 0.10 0.11 0.12 0.12 0.13 0.12 0.09 0.09 0.09 0.08 0.08 0.08 0.07 0.06 0.08 0.08 0.07 0.12 0.15 0.14 0.11 0.09 0.10 0.13 0.10 0.07
0.10 0.09 0.07 0.10 0.09 0.07 0.08 0.08 0.08 0.04 0.03 0.03 0.03 0.04 0.07 0.07 0.09 0.11 0.10 0.13 0.20 0.22 0.16 0.11 0.10 0.10 0.13 0.11 0.10 0.08 0.07 0.09 0.07 0.07 0.09 0.11 0.14 0.15 0.12 0.11 0.13 0.11 0.09
0.10 0.11 0.10 0.11 0.12 0.10 0.10 0.10 0.07 0.04 0.03 0.03 0.03 0.04 0.05 0.06 0.07 0.10 0.12 0.18 0.23 0.22 0.17 0.10 0.10 0.11 0.13 0.15 0.14 0.10 0.08 0.08 0.07 0.08 0.10 0.12 0.14 0.16 0.25 0.20 0.12 0.11 0.12
0.09 0.09 0.10 0.12 0.14 0.12 0.11 0.07 0.07 0.05 0.04 0.03 0.03 0.04 0.05 0.05 0.06 0.10 0.12 0.16 0.17 0.14 0.12 0.11 0.11 0.11 0.13 0.12 0.14 0.13 0.10 0.09 0.09 0.10 0.13 0.15 0.15 0.10 0.16 0.28 0.17 0.13 0.11
0.09 0.08 0.10 0.15 0.17 0.14 0.09 0.05 0.07 0.07 0.05 0.03 0.04 0.05 0.04 0.04 0.05 0.09 0.12 0.14 0.10 0.10 0.10 0.09 0.10 0.12 0.12 0.09 0.11 0.12 0.11 0.09 0.09 0.12 0.14 0.12 0.11 0.09 0.10 0.19 0.15 0.13 0.09
0.09 0.11 0.16 0.21 0.20 0.17 0.13 0.08 0.09 0.08 0.05 0.04 0.05 0.05 0.05 0.05 0.06 0.09 0.15 0.13 0.10 0.09 0.08 0.08 0.09 0.11 0.09 0.08 0.09 0.09 0.11 0.08 0.10 0.13 0.14 0.13 0.09 0.07 0.10 0.12 0.10 0.08 0.07
0.10 0.14 0.12 0.13 0.18 0.18 0.15 0.09 0.08 0.07 0.06 0.04 0.05 0.05 0.05 0.04 0.05 0.09 0.10 0.08 0.07 0.07 0.08 0.10 0.08 0.08 0.07 0.06 0.06 0.07 0.11 0.12 0.12 0.11 0.11 0.09 0.06 0.05 0.07 0.07 0.08 0.08 0.08
0.11 0.12 0.09 0.10 0.15 0.14 0.12 0.09 0.10 0.08 0.06 0.05 0.05 0.05 0.04 0.04 0.05 0.04 0.06 0.05 0.05 0.07 0.08 0.08 0.07 0.08 0.07 0.06 0.06 0.07 0.09 0.11 0.13 0.10 0.09 0.07 0.04 0.05 0.08 0.08 0.07 0.07 0.08
0.10 0.12 0.12 0.13 0.12 0.09 0.07 0.07 0.11 0.10 0.06 0.05 0.05 0.03 0.03 0.03 0.03 0.04 0.04 0.04 0.05 0.06 0.07 0.06 0.05 0.06 0.06 0.07 0.07 0.07 0.07 0.12 0.13 0.12 0.10 0.08 0.06 0.06 0.07 0.06 0.06 0.07 0.08
0.08 0.12 0.14 0.12 0.10 0.10 0.08 0.07 0.08 0.08 0.05 0.04 0.05 0.04 0.04 0.03 0.04 0.05 0.05 0.05 0.05 0.04 0.05 0.05 0.05 0.07 0.05 0.05 0.05 0.05 0.06 0.10 0.12 0.10 0.09 0.11 0.09 0.06 0.06 0.06 0.05 0.06 0.06
0.06 0.08 0.08 0.06 0.06 0.07 0.07 0.07 0.07 0.07 0.07 0.05 0.06 0.07 0.08 0.10 0.08 0.09 0.07 0.05 0.04 0.04 0.04 0.04 0.04 0.05 0.05 0.05 0.06 0.08 0.08 0.11 0.10 0.07 0.08 0.11 0.07 0.05 0.04 0.04 0.04 0.04 0.05
0.06 0.06 0.08 0.06 0.05 0.06 0.07 0.07 0.08 0.06 0.06 0.06 0.08 0.09 0.11 0.10 0.10 0.10 0.10 0.07 0.05 0.04 0.05 0.04 0.04 0.05 0.08 0.09 0.09 0.09 0.09 0.11 0.09 0.09 0.10 0.09 0.05 0.03 0.02 0.03 0.03 0.04 0.06
0.09 0.07 0.07 0.07 0.07 0.08 0.09 0.08 0.08 0.06 0.05 0.06 0.07 0.10 0.09 0.07 0.07 0.09 0.16 0.14 0.12 0.07 0.07 0.06 0.06 0.10 0.12 0.11 0.10 0.09 0.09 0.10 0.08 0.09 0.08 0.05 0.03 0.02 0.03 0.02 0.03 0.04 0.04
0.08 0.07 0.07 0.07 0.08 0.09 0.07 0.08 0.08 0.05 0.03 0.04 0.08 0.07 0.05 0.06 0.08 0.09 0.14 0.17 0.15 0.10 0.09 0.08 0.09 0.10 0.10 0.10 0.09 0.09 0.10 0.09 0.10 0.09 0.06 0.03 0.02 0.03 0.03 0.03 0.03 0.04 0.05
0.04 0.04 0.06 0.07 0.08 0.08 0.08 0.09 0.06 0.06 0.05 0.06 0.08 0.05 0.04 0.05 0.07 0.09 0.11 0.12 0.09 0.08 0.09 0.10 0.09 0.09 0.09 0.08 0.07 0.06 0.08 0.09 0.11 0.09 0.06 0.03 0.02 0.03 0.03 0.04 0.04 0.05 0.06
0.02 0.04 0.07 0.07 0.07 0.07 0.05 0.06 0.05 0.04 0.05 0.05 0.06 0.04 0.05 0.06 0.06 0.08 0.10 0.10 0.09 0.09 0.10 0.10 0.10 0.10 0.09 0.08 0.06 0.05 0.07 0.09 0.09 0.06 0.04 0.03 0.03 0.03 0.03 0.04 0.04 0.04 0.04
0.03 0.03 0.07 0.07 0.07 0.06 0.05 0.04 0.04 0.04 0.03 0.03 0.03 0.04 0.05 0.06 0.07 0.08 0.08 0.09 0.10 0.09 0.09 0.08 0.08 0.08 0.06 0.05 0.05 0.06 0.07 0.08 0.07 0.06 0.04 0.04 0.04 0.03 0.03 0.03 0.04 0.03 0.03
0.03 0.03 0.05 0.04 0.04 0.04 0.04 0.05 0.03 0.04 0.04 0.04 0.04 0.05 0.04 0.05 0.05 0.06 0.05 0.05 0.06 0.07 0.08 0.07 0.07 0.06 0.04 0.04 0.04 0.05 0.06 0.07 0.07 0.06 0.05 0.05 0.05 0.04 0.04 0.05 0.04 0.04 0.04
0.03 0.03 0.04 0.03 0.03 0.03 0.04 0.04 0.05 0.04 0.04 0.04 0.04 0.05 0.04 0.05 0.05 0.06 0.06 0.06 0.05 0.06 0.08 0.08 0.07 0.05 0.05 0.05 0.04 0.06 0.07 0.07 0.09 0.09 0.09 0.07 0.06 0.07 0.06 0.04 0.04 0.04 0.05
0.04 0.05 0.04 0.03 0.03 0.03 0.04 0.04 0.04 0.05 0.04 0.03 0.02 0.03 0.04 0.04 0.04 0.06 0.06 0.05 0.05 0.06 0.09 0.11 0.08 0.08 0.06 0.05 0.04 0.06 0.08 0.08 0.09 0.10 0.09 0.06 0.05 0.05 0.05 0.04 0.03 0.05 0.08
0.05 0.05 0.05 0.05 0.04 0.04 0.04 0.04 0.04 0.05 0.04 0.03 0.02 0.03 0.04 0.05 0.04 0.05 0.06 0.06 0.06 0.07 0.10 0.15 0.13 0.10 0.08 0.07 0.06 0.08 0.09 0.07 0.08 0.07 0.06 0.06 0.05 0.05 0.04 0.04 0.04 0.04 0.07
0.03 0.03 0.04 0.04 0.04 0.04 0.04 0.05 0.04 0.04 0.03 0.03 0.04 0.03 0.04 0.05 0.05 0.06 0.08 0.06 0.06 0.06 0.11 0.17 0.15 0.14 0.11 0.09 0.09 0.10 0.10 0.09 0.08 0.05 0.04 0.05 0.07 0.08 0.07 0.04 0.04 0.04 0.05
0.02 0.02 0.03 0.02 0.03 0.03 0.04 0.04 0.03 0.03 0.03 0.04 0.05 0.03 0.04 0.04 0.05 0.06 0.07 0.06 0.05 0.05 0.08 0.10 0.09 0.13 0.14 0.13 0.09 0.09 0.11 0.12 0.09 0.06 0.05 0.06 0.07 0.07 0.07 0.06 0.05 0.05 0.06
0.01 0.02 0.03 0.02 0.02 0.02 0.02 0.02 0.03 0.03 0.03 0.04 0.05 0.04 0.04 0.03 0.04 0.05 0.07 0.06 0.06 0.06 0.07 0.07 0.07 0.09 0.11 0.11 0.11 0.09 0.10 0.11 0.09 0.09 0.07 0.08 0.08 0.06 0.05 0.05 0.05 0.08 0.08
0.01 0.02 0.03 0.01 0.01 0.01 0.02 0.02 0.03 0.03 0.03 0.03 0.04 0.05 0.05 0.05 0.05 0.04 0.06 0.07 0.07 0.07 0.07 0.06 0.09 0.08 0.08 0.09 0.09 0.09 0.10 0.11 0.09 0.09 0.10 0.09 0.07 0.05 0.05 0.05 0.05 0.06 0.06
0.01 0.03 0.02 0.01 0.01 0.01 0.02 0.02 0.02 0.03 0.03 0.03 0.04 0.04 0.05 0.07 0.07 0.05 0.06 0.07 0.06 0.07 0.07 0.07 0.08 0.08 0.07 0.06 0.07 0.07 0.06 0.07 0.08 0.08 0.09 0.09 0.08 0.07 0.06 0.05 0.04 0.03 0.04
MSLP
1007.64 1007.49 1007.51 1007.75 1008.21 1008.82 1009.48 1010.11 1010.62 1010.99 1011.21 1011.35 1011.49 1011.70 1012.03 1012.46 1012.98 1013.50 1013.96 1014.30 1014.50 1014.56 1014.53 1014.45 1014.39 1014.38 1014.43 1014.51 1014.60 1014.68 1014.71 1014.70 1014.66 1014.63 1014.63 1014.68 1014.80 1014.96 1015.14 1015.31 1015.46 1015.57 1015.65
1007.66 1007.54 1007.62 1007.93 1008.46 1009.14 1009.86 1010.52 1011.05 1011.43 1011.66 1011.82 1011.99 1012.23 1012.58 1013.04 1013.56 1014.08 1014.52 1014.83 1014.98 1015.01 1014.94 1014.83 1014.75 1014.71 1014.72 1014.77 1014.83 1014.86 1014.85 1014.79 1014.72 1014.66 1014.64 1014.69 1014.80 1014.96 1015.15 1015.33 1015.48 1015.60 1015.70
1007.62 1007.53 1007.67 1008.07 1008.70 1009.46 1010.26 1010.98 1011.56 1011.96 1012.21 1012.38 1012.55 1012.79 1013.13 1013.57 1014.06 1014.53 1014.92 1015.18 1015.30 1015.29 1015.21 1015.09 1015.00 1014.94 1014.94 1014.95 1014.96 1014.94 1014.88 1014.79 1014.68 1014.59 1014.57 1014.61 1014.72 1014.89 1015.08 1015.28 1015.45 1015.59 1015.71
1007.59 1007.54 1007.76 1008.25 1008.98 1009.84 1010.73 1011.51 1012.14 1012.57 1012.84 1013.01 1013.17 1013.38 1013.68 1014.05 1014.46 1014.85 1015.17 1015.37 1015.45 1015.42 1015.33 1015.23 1015.14 1015.08 1015.06 1015.04 1015.00 1014.93 1014.82 1014.68 1014.55 1014.45 1014.42 1014.47 1014.59 1014.77 1014.98 1015.19 1015.38 1015.55 1015.71
1007.67 1007.68 1007.97 1008.56 1009.38 1010.32 1011.27 1012.11 1012.76 1013.22 1013.50 1013.67 1013.80 1013.97 1014.19 1014.47 1014.78 1015.08 1015.30 1015.44 1015.47 1015.43 1015.35 1015.26 1015.18 1015.13 1015.09 1015.04 1014.96 1014.84 1014.68 1014.51 1014.36 1014.26 1014.24 1014.30 1014.44 1014.63 1014.85 1015.07 1015.28 1015.47 1015.66
1007.93 1008.01 1008.38 1009.04 1009.92 1010.90 1011.88 1012.73 1013.40 1013.86 1014.14 1014.29 1014.40 1014.51 1014.66 1014.84 1015.05 1015.23 1015.37 1015.43 1015.43 1015.37 1015.30 1015.22 1015.16 1015.11 1015.05 1014.97 1014.85 1014.68 1014.49 1014.31 1014.15 1014.07 1014.07 1014.15 1014.30 1014.50 1014.72 1014.93 1015.14 1015.35 1015.57
1008.39 1008.55 1008.99 1009.70 1010.59 1011.57 1012.52 1013.34 1013.98 1014.42 1014.68 1014.82 1014.90 1014.97 1015.06 1015.16 1015.26 1015.35 1015.39 1015.39 1015.35 1015.28 1015.21 1015.14 1015.09 1015.04 1014.96 1014.85 1014.69 1014.50 1014.29 1014.10 1013.96 1013.90 1013.93 1014.04 1014.21 1014.41 1014.61 1014.80 1014.99 1015.18 1015.40
1009.01 1009.27 1009.77 1010.49 1011.36 1012.27 1013.14 1013.88 1014.44 1014.84 1015.07 1015.20 1015.27 1015.32 1015.36 1015.40 1015.43 1015.44 1015.41 1015.35 1015.27 1015.18 1015.11 1015.05 1015.00 1014.94 1014.85 1014.72 1014.54 1014.33 1014.12 1013.94 1013.83 1013.81 1013.88 1014.02 1014.20 1014.38 1014.55 1014.70 1014.83 1014.98 1015.18
1009.71 1010.07 1010.61 1011.32 1012.11 1012.92 1013.66 1014.27 1014.74 1015.07 1015.27 1015.39 1015.46 1015.51 1015.54 1015.56 1015.54 1015.49 1015.40 1015.29 1015.18 1015.08 1015.00 1014.94 1014.89 1014.83 1014.73 1014.59 1014.41 1014.20 1014.01 1013.87 1013.81 1013.83 1013.94 1014.10 1014.28 1014.44 1014.56 1014.64 1014.70 1014.78 1014.91
1010.39 1010.83 1011.41 1012.07 1012.77 1013.44 1014.02 1014.50 1014.86 1015.11 1015.28 1015.40 1015.49 1015.56 1015.60 1015.61 1015.57 1015.48 1015.36 1015.21 1015.07 1014.95 1014.87 1014.82 1014.77 1014.72 1014.63 1014.50 1014.33 1014.15 1014.00 1013.91 1013.90 1013.98 1014.13 1014.31 1014.48 1014.61 1014.67 1014.66 1014.63 1014.62 1014.67
1010.94 1011.47 1012.05 1012.67 1013.26 1013.78 1014.21 1014.55 1014.80 1014.98 1015.13 1015.25 1015.37 1015.47 1015.54 1015.55 1015.51 1015.41 1015.26 1015.09 1014.93 1014.80 1014.72 1014.68 1014.65 1014.62 1014.56 1014.46 1014.34 1014.21 1014.12 1014.08 1014.13 1014.26 1014.44 1014.63 1014.79 1014.88 1014.87 1014.79 1014.66 1014.55 1014.52
1011.32 1011.89 1012.48 1013.04 1013.53 1013.93 1014.23 1014.45 1014.61 1014.73 1014.86 1015.00 1015.15 1015.28 1015.37 1015.41 1015.37 1015.26 1015.10 1014.92 1014.75 1014.63 1014.56 1014.54 1014.54 1014.55 1014.54 1014.50 1014.44 1014.38 1014.35 1014.38 1014.49 1014.65 1014.85 1015.05 1015.18 1015.23 1015.17 1015.02 1014.82 1014.62 1014.50
1011.50 1012.10 1012.68 1013.19 1013.60 1013.90 1014.11 1014.24 1014.34 1014.44 1014.56 1014.71 1014.87 1015.03 1015.14 1015.19 1015.16 1015.05 1014.90 1014.72 1014.56 1014.46 1014.41 1014.42 1014.47 1014.54 1014.59 1014.63 1014.65 1014.67 1014.71 1014.80 1014.94 1015.13 1015.34 1015.52 1015.63 1015.64 1015.54 1015.35 1015.09 1014.84 1014.66
1011.50 1012.10 1012.66 1013.14 1013.50 1013.75 1013.91 1014.00 1014.07 1014.15 1014.27 1014.42 1014.60 1014.76 1014.88 1014.94 1014.92 1014.82 1014.68 1014.52 1014.39 1014.31 1014.31 1014.37 1014.48 1014.61 1014.74 1014.86 1014.96 1015.06 1015.16 1015.29 1015.46 1015.65 1015.85 1016.00 1016.09 1016.07 1015.96 1015.74 1015.47 1015.20 1014.99
1011.37 1011.96 1012.50 1012.96 1013.30 1013.54 1013.68 1013.78 1013.85 1013.93 1014.05 1014.20 1014.36 1014.51 1014.63 1014.68 1014.67 1014.59 1014.48 1014.36 1014.27 1014.25 1014.29 1014.40 1014.57 1014.77 1014.98 1015.17 1015.35 1015.51 1015.67 1015.83 1016.00 1016.18 1016.34 1016.46 1016.52 1016.49 1016.37 1016.17 1015.92 1015.68 1015.47
1011.20 1011.75 1012.27 1012.71 1013.06 1013.31 1013.49 1013.61 1013.70 1013.80 1013.91 1014.03 1014.17 1014.30 1014.39 1014.44 1014.44 1014.40 1014.33 1014.27 1014.25 1014.28 1014.38 1014.55 1014.77 1015.03 1015.29 1015.55 1015.78 1015.99 1016.19 1016.36 1016.52 1016.67 1016.79 1016.87 1016.90 1016.86 1016.76 1016.60 1016.41 1016.22 1016.06
1011.03 1011.54 1012.03 1012.46 1012.83 1013.12 1013.34 1013.50 1013.63 1013.73 1013.83 1013.93 1014.02 1014.11 1014.18 1014.23 1014.25 1014.25 1014.25 1014.27 1014.32 1014.42 1014.57 1014.79 1015.05 1015.34 1015.64 1015.94 1016.21 1016.46 1016.67 1016.85 1017.00 1017.11 1017.19 1017.23 1017.23 1017.19 1017.11 1017.01 1016.90 1016.79 1016.70
1010.91 1011.36 1011.81 1012.24 1012.63 1012.96 1013.23 1013.44 1013.60 1013.71 1013.78 1013.84 1013.88 1013.92 1013.97 1014.02 1014.07 1014.14 1014.22 1014.33 1014.46 1014.63 1014.83 1015.08 1015.36 1015.66 1015.98 1016.29 1016.59 1016.86 1017.09 1017.27 1017.41 1017.50 1017.54 1017.55 1017.53 1017.50 1017.46 1017.42 1017.38 1017.36 1017.36
1010.83 1011.23 1011.64 1012.06 1012.46 1012.83 1013.14 1013.39 1013.57 1013.68 1013.73 1013.73 1013.72 1013.72 1013.74 1013.80 1013.90 1014.04 1014.21 1014.41 1014.63 1014.86 1015.10 1015.36 1015.64 1015.93 1016.24 1016.56 1016.87 1017.16 1017.41 1017.62 1017.76 1017.84 1017.87 1017.87 1017.84 1017.82 1017.81 1017.83 1017.87 1017.94 1018.01
1010.78 1011.13 1011.51 1011.90 1012.30 1012.69 1013.04 1013.32 1013.51 1013.61 1013.62 1013.59 1013.53 1013.48 1013.48 1013.55 1013.69 1013.91 1014.17 1014.46 1014.75 1015.04 1015.31 1015.57 1015.83 1016.10 1016.39 1016.70 1017.02 1017.33 1017.62 1017.86 1018.04 1018.15 1018.20 1018.20 1018.18 1018.18 1018.20 1018.26 1018.37 1018.50 1018.65
1010.73 1011.04 1011.37 1011.74 1012.14 1012.53 1012.89 1013.19 1013.39 1013.48 1013.47 1013.39 1013.28 1013.20 1013.19 1013.27 1013.45 1013.72 1014.06 1014.43 1014.79 1015.11 1015.40 1015.65 1015.88 1016.11 1016.38 1016.68 1017.02 1017.37 1017.71 1018.01 1018.25 1018.42 1018.51 1018.54 1018.55 1018.57 1018.62 1018.72 1018.87 1019.05 1019.24
1010.62 1010.90 1011.21 1011.55 1011.93 1012.32 1012.69 1012.99 1013.20 1013.29 1013.26 1013.15 1013.01 1012.90 1012.87 1012.95 1013.16 1013.48 1013.87 1014.29 1014.69 1015.04 1015.33 1015.56 1015.76 1015.96 1016.20 1016.50 1016.85 1017.25 1017.66 1018.05 1018.37 1018.62 1018.78 1018.87 1018.92 1018.97 1019.04 1019.17 1019.34 1019.56 1019.79
1010.43 1010.70 1010.98 1011.30 1011.66 1012.04 1012.42 1012.73 1012.95 1013.05 1013.02 1012.90 1012.74 1012.61 1012.56 1012.63 1012.84 1013.17 1013.59 1014.03 1014.45 1014.81 1015.09 1015.30 1015.47 1015.65 1015.87 1016.17 1016.55 1016.99 1017.47 1017.94 1018.37 1018.70 1018.95 1019.11 1019.22 1019.31 1019.42 1019.56 1019.75 1019.99 1020.24
1010.13 1010.41 1010.67 1010.97 1011.31 1011.69 1012.07 1012.41 1012.65 1012.77 1012.77 1012.65 1012.49 1012.35 1012.28 1012.33 1012.51 1012.83 1013.23 1013.67 1014.09 1014.44 1014.71 1014.90 1015.05 1015.21 1015.42 1015.72 1016.12 1016.60 1017.14 1017.69 1018.20 1018.63 1018.96 1019.21 1019.38 1019.52 1019.66 1019.83 1020.05 1020.30 1020.57
1009.71 1010.00 1010.27 1010.55 1010.88 1011.25 1011.65 1012.02 1012.30 1012.47 1012.51 1012.43 1012.28 1012.13 1012.03 1012.05 1012.19 1012.47 1012.84 1013.25 1013.64 1013.98 1014.24 1014.43 1014.57 1014.71 1014.91 1015.20 1015.60 1016.11 1016.68 1017.28 1017.85 1018.36 1018.77 1019.09 1019.34 1019.54 1019.73 1019.93 1020.18 1020.45 1020.75
1009.17 1009.48 1009.75 1010.02 1010.34 1010.73 1011.15 1011.55 1011.90 1012.13 1012.23 1012.20 1012.08 1011.93 1011.82 1011.80 1011.89 1012.11 1012.43 1012.80 1013.17 1013.49 1013.74 1013.93 1014.07 1014.21 1014.40 1014.68 1015.06 1015.55 1016.12 1016.72 1017.33 1017.88 1018.35 1018.74 1019.06 1019.33 1019.58 1019.84 1020.13 1020.45 1020.78
Thickness
5816 5816 5813 5813 5811 5810 5809 5807 5806 5805 5804 5803 5802 5801 5800 5799 5798 5796 5795 5793 5791 5789 5787 5786 5784 5782 5781 5780 5779 5777 5776 5775 5773 5772 5770 5769 5768 5766 5765 5764 5763 5762 5761
5820 5815 5812 5812 5811 5809 5807 5806 5805 5804 5803 5802 5801 5800 5799 5798 5797 5795 5794 5793 5791 5788 5787 5785 5783 5782 5780 5779 5778 5776 5775 5773 5772 5771 5769 5768 5766 5765 5764 5763 5762 5761 5760
5821 5816 5812 5810 5809 5808 5806 5805 5804 5803 5802 5801 5800 5798 5798 5797 5795 5795 5794 5794 5791 5788 5786 5785 5783 5781 5780 5778 5777 5775 5774 5772 5771 5770 5769 5767 5766 5765 5763 5762 5761 5760 5758
5823 5817 5813 5810 5808 5807 5805 5804 5803 5802 5801 5800 5798 5797 5796 5796 5795 5793 5792 5791 5789 5787 5786 5784 5782 5781 5779 5777 5776 5775 5774 5772 5771 5770 5769 5768 5766 5764 5763 5761 5760 5758 5757
5824 5818 5812 5810 5808 5806 5804 5803 5802 5801 5800 5799 5797 5796 5795 5795 5794 5793 5791 5790 5788 5787 5785 5783 5781 5780 5778 5776 5775 5775 5773 5772 5771 5770 5769 5768 5766 5764 5762 5761 5759 5757 5756
5824 5819 5813 5810 5808 5806 5804 5802 5801 5800 5799 5797 5796 5795 5794 5794 5793 5791 5790 5788 5787 5786 5784 5782 5781 5779 5777 5776 5775 5774 5773 5772 5772 5772 5770 5768 5766 5764 5762 5760 5759 5757 5756
5825 5820 5814 5810 5808 5805 5804 5802 5801 5799 5798 5797 5796 5795 5794 5792 5791 5790 5789 5788 5786 5785 5783 5782 5780 5779 5777 5776 5775 5775 5774 5773 5773 5773 5772 5769 5766 5764 5762 5760 5758 5757 5755
5826 5821 5815 5810 5808 5805 5804 5802 5801 5799 5798 5797 5795 5794 5793 5792 5791 5790 5788 5787 5785 5784 5783 5781 5780 5779 5778 5777 5776 5775 5774 5773 5775 5774 5772 5768 5765 5763 5761 5759 5758 5756 5755
5827 5822 5815 5811 5808 5806 5804 5802 5800 5799 5798 5797 5795 5794 5793 5791 5790 5789 5787 5786 5785 5784 5783 5781 5781 5780 5779 5777 5776 5775 5774 5774 5774 5774 5772 5768 5765 5763 5761 5759 5758 5756 5755
5826 5822 5818 5815 5811 5808 5805 5802 5801 5799 5798 5796 5795 5794 5793 5791 5790 5789 5787 5786 5785 5784 5783 5782 5781 5780 5779 5778 5777 5776 5775 5775 5775 5774 5771 5768 5766 5763 5761 5759 5758 5756 5754
5823 5822 5821 5817 5814 5812 5808 5804 5802 5800 5798 5797 5795 5794 5793 5792 5791 5789 5788 5786 5786 5785 5784 5783 5782 5781 5780 5779 5779 5777 5776 5776 5777 5774 5771 5768 5766 5764 5762 5759 5758 5756 5754
5818 5821 5822 5819 5816 5814 5812 5807 5804 5802 5799 5798 5797 5795 5794 5793 5792 5791 5789 5788 5788 5786 5784 5784 5783 5782 5781 5780 5780 5778 5777 5777 5777 5774 5771 5768 5766 5764 5762 5760 5758 5756 5754
5819 5820 5821 5820 5818 5816 5812 5809 5807 5805 5802 5800 5798 5796 5795 5794 5792 5791 5789 5788 5788 5786 5785 5784 5783 5783 5782 5782 5781 5779 5779 5778 5778 5774 5771 5769 5766 5764 5762 5761 5759 5756 5754
5821 5820 5822 5821 5818 5815 5813 5811 5809 5806 5804 5802 5799 5797 5796 5794 5792 5791 5790 5789 5789 5788 5787 5786 5785 5783 5783 5783 5782 5781 5780 5778 5777 5774 5771 5769 5767 5765 5763 5761 5759 5757 5755
5823 5821 5822 5821 5817 5814 5812 5810 5809 5807 5805 5803 5799 5797 5796 5794 5792 5791 5790 5790 5790 5789 5788 5787 5785 5784 5783 5782 5782 5781 5779 5777 5776 5773 5771 5769 5767 5765 5763 5761 5759 5757 5755
5824 5823 5822 5819 5816 5814 5811 5809 5809 5808 5805 5803 5800 5798 5796 5795 5792 5791 5790 5789 5789 5789 5788 5787 5786 5785 5783 5782 5781 5780 5779 5777 5776 5774 5771 5769 5767 5765 5763 5761 5759 5757 5755
5827 5824 5822 5819 5816 5813 5812 5810 5810 5808 5806 5803 5800 5798 5796 5795 5792 5790 5789 5788 5788 5789 5788 5787 5786 5785 5783 5781 5780 5779 5778 5777 5775 5774 5772 5770 5767 5765 5763 5761 5759 5757 5755
5829 5825 5822 5822 5817 5814 5812 5811 5809 5808 5806 5803 5801 5798 5796 5794 5793 5791 5789 5788 5788 5788 5787 5786 5784 5782 5780 5779 5778 5777 5777 5776 5775 5774 5773 5771 5768 5766 5763 5761 5759 5757 5756
5831 5826 5822 5820 5817 5814 5812 5811 5809 5807 5805 5803 5801 5798 5796 5794 5793 5791 5789 5788 5788 5787 5786 5785 5782 5780 5777 5776 5776 5776 5776 5775 5775 5774 5772 5771 5769 5766 5764 5761 5759 5756 5755
5832 5827 5823 5820 5817 5815 5812 5810 5808 5806 5805 5803 5800 5798 5796 5794 5792 5791 5789 5788 5787 5785 5784 5783 5780 5779 5777 5775 5775 5774 5774 5775 5774 5773 5772 5770 5768 5767 5765 5762 5758 5755 5753
5831 5826 5822 5819 5816 5814 5810 5807 5804 5802 5802 5801 5799 5797 5796 5794 5792 5790 5789 5787 5785 5783 5781 5781 5778 5776 5774 5775 5770 5767 5769 5773 5772 5771 5770 5768 5767 5766 5764 5761 5758 5755 5753
5830 5826 5823 5819 5817 5814 5811 5809 5807 5805 5803 5801 5800 5797 5796 5794 5792 5791 5787 5785 5784 5781 5779 5778 5776 5772 5771 5772 5766 5759 5756 5759 5764 5768 5767 5765 5764 5763 5761 5759 5757 5754 5752
5831 5828 5825 5821 5818 5815 5813 5811 5808 5805 5802 5799 5797 5795 5795 5794 5791 5789 5787 5785 5783 5780 5777 5776 5773 5769 5766 5767 5767 5760 5751 5746 5751 5758 5762 5762 5762 5760 5759 5757 5755 5753 5751
5835 5832 5827 5822 5819 5815 5813 5809 5805 5800 5796 5796 5796 5795 5794 5792 5790 5788 5786 5783 5781 5779 5776 5774 5773 5770 5766 5762 5763 5762 5759 5754 5746 5744 5752 5756 5757 5756 5755 5754 5752 5749 5747
5838 5833 5828 5823 5818 5816 5813 5809 5804 5801 5799 5798 5796 5794 5792 5790 5789 5786 5784 5781 5778 5776 5774 5772 5771 5768 5766 5761 5759 5758 5756 5754 5752 5744 5740 5745 5749 5751 5752 5750 5748 5746 5743
5838 5834 5828 5821 5816 5814 5811 5808 5803 5799 5797 5794 5792 5790 5789 5788 5786 5784 5782 5779 5777 5774 5772 5770 5768 5765 5763 5761 5759 5757 5754 5751 5747 5745 5740 5740 5740 5745 5748 5747 5745 5742 5740